| time (UTC) | temp F | wind direction | speed MPH | gust MPH | rain 1hr in | rain 24hr in | rain mn in | humidity % | barometer mb |
| 20260505111533 | 54 | 87 | 3.0 | 7.0 | 0.00 | 0.00 | 0.00 | 88 | 1013.9 |
| 20260505101549 | 55 | 87 | 4.0 | 8.0 | 0.00 | 0.00 | 0.00 | 87 | 1013.4 |
| 20260505094645 | 55 | 89 | 3.0 | 6.0 | 0.00 | 0.00 | 0.00 | 86 | 1013.2 |
| 20260505093031 | 56 | 94 | 4.0 | 6.0 | 0.00 | 0.00 | 0.00 | 86 | 1013.1 |
| 20260505091531 | 56 | 85 | 4.0 | 7.0 | 0.00 | 0.00 | 0.00 | 86 | 1013.0 |
| 20260505090036 | 56 | 90 | 3.0 | 5.0 | 0.00 | 0.00 | 0.00 | 85 | 1012.9 |
| 20260505083030 | 57 | 90 | 3.0 | 5.0 | 0.00 | 0.00 | 0.00 | 83 | 1012.8 |
| 20260505081533 | 58 | 82 | 3.0 | 5.0 | 0.00 | 0.00 | 0.00 | 81 | 1012.7 |
| 20260505080028 | 59 | 82 | 3.0 | 5.0 | 0.00 | 0.00 | 0.00 | 79 | 1012.5 |
| 20260505074532 | 60 | 95 | 3.0 | 5.0 | 0.00 | 0.00 | 0.00 | 75 | 1012.4 |
| 20260505071532 | 64 | 272 | 1.0 | 4.0 | 0.00 | 0.00 | 0.00 | 68 | 1012.2 |
| 20260505070032 | 66 | 261 | 3.0 | 10.0 | 0.00 | 0.00 | 0.00 | 65 | 1012.0 |
| 20260505064528 | 66 | 221 | 5.0 | 12.0 | 0.00 | 0.00 | 0.00 | 65 | 1011.9 |
| 20260505063030 | 66 | 210 | 5.0 | 12.0 | 0.00 | 0.00 | 0.00 | 64 | 1011.9 |
| 20260505061538 | 66 | 209 | 5.0 | 11.0 | 0.00 | 0.00 | 0.00 | 64 | 1011.8 |
| 20260505060037 | 66 | 214 | 5.0 | 15.0 | 0.00 | 0.00 | 0.00 | 63 | 1011.8 |
| 20260505054530 | 66 | 218 | 4.0 | 11.0 | 0.00 | 0.00 | 0.00 | 62 | 1011.8 |
| 20260505053033 | 66 | 237 | 4.0 | 14.0 | 0.00 | 0.00 | 0.00 | 60 | 1011.7 |
| 20260505051528 | 67 | 235 | 5.0 | 14.0 | 0.00 | 0.00 | 0.00 | 58 | 1011.6 |
| 20260505050107 | 68 | 225 | 5.0 | 14.0 | 0.00 | 0.00 | 0.00 | 57 | 1011.5 |
| 20260505041532 | 68 | 237 | 5.0 | 12.0 | 0.00 | 0.00 | 0.00 | 52 | 1010.9 |
| 20260505040042 | 69 | 230 | 4.0 | 9.0 | 0.00 | 0.00 | 0.00 | 51 | 1010.7 |
| 20260505034528 | 69 | 235 | 4.0 | 10.0 | 0.00 | 0.00 | 0.00 | 50 | 1010.5 |
| 20260505033107 | 70 | 238 | 5.0 | 10.0 | 0.00 | 0.00 | 0.00 | 48 | 1010.2 |
| 20260505031535 | 71 | 236 | 7.0 | 14.0 | 0.00 | 0.00 | 0.00 | 49 | 1010.0 |
| 20260505030032 | 72 | 234 | 4.0 | 10.0 | 0.00 | 0.00 | 0.00 | 49 | 1009.6 |
| 20260505023103 | 73 | 262 | 4.0 | 9.0 | 0.00 | 0.00 | 0.00 | 52 | 1009.5 |
| 20260505021532 | 74 | 288 | 2.0 | 6.0 | 0.00 | 0.00 | 0.00 | 51 | 1009.5 |
| 20260505020107 | 75 | 331 | 1.0 | 6.0 | 0.00 | 0.00 | 0.00 | 50 | 1009.5 |
| 20260505014531 | 77 | 281 | 3.0 | 7.0 | 0.00 | 0.00 | 0.00 | 48 | 1009.3 |
| 20260505013032 | 77 | 307 | 4.0 | 9.0 | 0.00 | 0.00 | 0.00 | 48 | 1009.3 |
| 20260505011531 | 77 | 309 | 6.0 | 12.0 | 0.00 | 0.00 | 0.00 | 47 | 1009.2 |
| 20260505010028 | 77 | 318 | 6.0 | 14.0 | 0.00 | 0.00 | 0.00 | 47 | 1009.2 |
| 20260505003032 | 78 | 321 | 7.0 | 15.0 | 0.00 | 0.00 | 0.00 | 46 | 1009.1 |
| 20260504234528 | 78 | 346 | 7.0 | 14.0 | 0.00 | 0.00 | 0.00 | 47 | 1009.0 |
| 20260504233031 | 79 | 341 | 5.0 | 12.0 | 0.00 | 0.00 | 0.00 | 48 | 1008.9 |
| 20260504231531 | 79 | 332 | 6.0 | 11.0 | 0.00 | 0.00 | 0.00 | 47 | 1009.0 |
| 20260504230039 | 79 | 335 | 5.0 | 12.0 | 0.00 | 0.00 | 0.00 | 47 | 1009.2 |
| 20260504223029 | 79 | 19 | 6.0 | 11.0 | 0.00 | 0.00 | 0.00 | 48 | 1009.5 |
| 20260504221530 | 78 | 25 | 6.0 | 12.0 | 0.00 | 0.00 | 0.00 | 49 | 1009.6 |
| 20260504211534 | 77 | 28 | 7.0 | 14.0 | 0.00 | 0.00 | 0.00 | 47 | 1010.2 |
| 20260504210032 | 77 | 29 | 7.0 | 13.0 | 0.00 | 0.00 | 0.00 | 46 | 1010.4 |
| 20260504204605 | 78 | 23 | 7.0 | 12.0 | 0.00 | 0.00 | 0.00 | 46 | 1010.5 |
| 20260504203108 | 78 | 38 | 7.0 | 13.0 | 0.00 | 0.00 | 0.00 | 46 | 1010.6 |
| 20260504200032 | 76 | 30 | 7.0 | 13.0 | 0.00 | 0.00 | 0.00 | 47 | 1010.8 |
| 20260504194539 | 76 | 30 | 7.0 | 12.0 | 0.00 | 0.00 | 0.00 | 48 | 1010.9 |
| 20260504193033 | 76 | 39 | 8.0 | 13.0 | 0.00 | 0.00 | 0.00 | 49 | 1011.0 |
| 20260504191537 | 75 | 42 | 7.0 | 14.0 | 0.00 | 0.00 | 0.00 | 50 | 1011.1 |
| 20260504190032 | 74 | 46 | 7.0 | 14.0 | 0.00 | 0.00 | 0.00 | 51 | 1011.3 |
| 20260504184531 | 73 | 55 | 7.0 | 13.0 | 0.00 | 0.00 | 0.00 | 54 | 1011.4 |
| 20260504183041 | 72 | 52 | 7.0 | 14.0 | 0.00 | 0.00 | 0.00 | 56 | 1011.4 |
| 20260504181529 | 71 | 38 | 8.0 | 14.0 | 0.00 | 0.00 | 0.00 | 57 | 1011.4 |
| 20260504180033 | 70 | 33 | 7.0 | 13.0 | 0.00 | 0.00 | 0.00 | 59 | 1011.5 |
| 20260504173030 | 69 | 41 | 5.0 | 9.0 | 0.00 | 0.00 | 0.00 | 63 | 1011.6 |
| 20260504171530 | 68 | 45 | 4.0 | 11.0 | 0.00 | 0.00 | 0.00 | 64 | 1011.7 |
| 20260504150107 | 53 | 280 | 0.0 | 2.0 | 0.00 | 0.00 | 0.00 | 93 | 1012.2 |